Location: Unspecified
(0.0000°N, 0.0000°E)
Time: 09:45:54
(UTC+00:00)

Vanguard 2 Rocket - Pass Details

Date: 10 December 2017
Orbit: 556 x 3326 km, 32.9° (Epoch: 15 January)

Event Time Altitude Azimuth Distance (km) Brightness Sun altitude
Rises 21:17:54 0° 299° (WNW) 5,916 11.3 -45.9°
Reaches altitude 10° 21:23:37 10° 316° (NW) 5,384 10.8 -47.0°
Enters shadow 21:30:15 17° 340° (NNW) 5,187 10.5 -48.4°
Maximum altitude 21:34:12 19° 355° (N) 5,279 - -49.2°
Drops below altitude 10° 21:46:29 10° 33° (NNE) 6,278 - -51.6°
Sets 21:54:14 0° 50° (NE) 7,218 - -53.1°
